STARLINK-31952 (59867 NORAD) Tracking and Keplerian Element Data

This shows tracking and keplerian element data for the satellite.

Feedback or suggestion? Click here.




ElementValue
Catalog59867
NameSTARLINK-31952
Epoch Orbit294
Epoch Day160.16667824
Epoch Year2024
RAAN328.0135
Inclination43.0023
Eccentricity0.0001581
Argument of Perigee259.3859
Mean Anonmoly216.192
Mean Motion15.73530165
Decay Rate-0.01620757
L11 59867U 24098K 24160.16667824 -.01620757 00000+0 -12677-1 0 9994
L22 59867 43.0023 328.0135 0001581 259.3859 216.1920 15.73530165 2949



Live tracking and technical data element details for STARLINK-31952 (NORAD 59867). STARLINK-31952 can be tracked NOW for your location showing map with azimuth and elevation plus other details from your city location.







IsCatalogInMostPopularTable: catalog: 59867, numindb: 7
Update: records affected: 1



GetName: 59867 STARLINK-31952

Hit Count: updated at: Tue, 16 Jul 2024 03:53:23 GMT